Weather History for LSGG - April, 2013

Change the Weather History Date:

Sunday, April 28, 2013

  Actual Average Record
Temperature  
Mean Temperature 42 °F -  
Max Temperature 49 °F 63 °F - ()
Min Temperature 36 °F 45 °F - ()
Degree Days  
Heating Degree Days 22    
Moisture  
Dew Point 38 °F    
Average Humidity 79    
Maximum Humidity 100    
Minimum Humidity 58    
Precipitation  
Precipitation 0.00 in 0.09 in - ()
Sea Level Pressure  
Sea Level Pressure 29.93 in    
Wind  
Wind Speed 4 mph ()    
Max Wind Speed 8 mph    
Max Gust Speed -    
Visibility 6.9 miles    
Events Rain    
T = Trace of Precipitation, MM = Missing Value Source: Averaged Metar Reports

Daily Weather History Graph

Daily Weather History Graph

Search for Another Location

Airport or City:

Trip Planner

Search our weather history database for the weather conditions in past years. The results will help you decide how hot, cold, wet, or windy it might be!

Date:

Astronomy

Apr. 28, 2013 Rise Set
Actual Time 6:26 AM CEST 8:40 PM CEST
Civil Twilight 5:53 AM CEST 9:13 PM CEST
Nautical Twilight 5:12 AM CEST 9:54 PM CEST
Astronomical Twilight 4:27 AM CEST 10:40 PM CEST
Moon No Moon Rise 8:20 AM CEST (4/28)
Length of Visible Light 15h 19m
Length of Day
14h 13m
Waning Gibbous, 91% of the Moon is Illuminated
Apr 28
Waning Gibbous
May 2
Last Quarter
May 10
New
May 18
First Quarter
May 25
Full

Hourly Weather History & Observations

Time (CEST) Temp. Windchill Dew Point Humidity Pressure Visibility Wind Dir Wind Speed Gust Speed Precip Events Conditions
12:00 AM 38 °F - 35 °F 87% 29.88 in - SW 8.1 mph - -  
12:20 AM 37.4 °F 32.1 °F 35.6 °F 93% 29.83 in 6.2 mi WSW 6.9 mph - N/A Rain Light Rain
12:50 AM 37.4 °F 31.4 °F 35.6 °F 93% 29.83 in 6.2 mi SW 8.1 mph - N/A   Light Drizzle
1:00 AM 38 °F - 35 °F 84% 29.89 in - SW 4.6 mph - -  
1:20 AM 37.4 °F 32.1 °F 35.6 °F 93% 29.83 in 6.2 mi SW 6.9 mph - N/A   Mostly Cloudy
1:50 AM 37.4 °F 33.8 °F 35.6 °F 93% 29.83 in 6.2 mi SW 4.6 mph - N/A   Mostly Cloudy
2:00 AM 38 °F - 35 °F 86% 29.90 in 19 mi WSW 5.8 mph - - Rain Light Rain
2:20 AM 37.4 °F 32.8 °F 35.6 °F 93% 29.83 in 6.2 mi SW 5.8 mph - N/A   Overcast
2:50 AM 37.4 °F 34.9 °F 35.6 °F 93% 29.83 in 6.2 mi WSW 3.5 mph - N/A   Mostly Cloudy
3:00 AM 38 °F - 35 °F 84% 29.89 in - WSW 3.5 mph - -  
3:50 AM 37.4 °F 32.8 °F 35.6 °F 93% 29.83 in 6.2 mi SW 5.8 mph - N/A   Overcast
4:00 AM 38 °F - 35 °F 86% 29.90 in - WSW 5.8 mph - -  
4:20 AM 37.4 °F 33.8 °F 35.6 °F 93% 29.86 in 6.2 mi WSW 4.6 mph - N/A   Overcast
4:50 AM 37.4 °F 34.9 °F 35.6 °F 93% 29.86 in 6.2 mi WSW 3.5 mph - N/A   Overcast
5:20 AM 37.4 °F 34.9 °F 35.6 °F 93% 29.86 in 6.2 mi SW 3.5 mph - N/A   Overcast
5:50 AM 37.4 °F - 35.6 °F 93% 29.86 in 6.2 mi Variable 2.3 mph - N/A   Mostly Cloudy
6:00 AM 38 °F - 35 °F 85% 29.92 in - WSW 2.3 mph - -  
6:20 AM 37.4 °F 34.9 °F 35.6 °F 93% 29.86 in 5.6 mi Variable 3.5 mph - N/A   Mostly Cloudy
6:50 AM 35.6 °F - 35.6 °F 100% 29.89 in 6.2 mi Variable 1.2 mph - N/A   Mostly Cloudy
7:00 AM 38 °F - 35 °F 85% 29.95 in - West 2.3 mph - -  
7:20 AM 37.4 °F 34.9 °F 35.6 °F 93% 29.89 in 6.2 mi West 3.5 mph - N/A   Mostly Cloudy
7:50 AM 37.4 °F - 35.6 °F 93% 29.92 in 6.2 mi Variable 2.3 mph - N/A   Scattered Clouds
8:00 AM 38 °F - 35 °F 85% 29.96 in 11 mi SW 3.5 mph - -   Mostly Cloudy
8:20 AM 39.2 °F 35.9 °F 35.6 °F 87% 29.92 in 6.2 mi SW 4.6 mph - N/A   Mostly Cloudy
8:50 AM 41.0 °F 37.1 °F 37.4 °F 87% 29.95 in 6.2 mi SW 5.8 mph - N/A   Mostly Cloudy
9:00 AM 40 °F - 35 °F 77% 29.98 in - WSW 3.5 mph - -  
9:20 AM 41.0 °F 39.0 °F 35.6 °F 81% 29.95 in 6.2 mi Variable 3.5 mph - N/A   Mostly Cloudy
9:50 AM 41.0 °F 39.0 °F 35.6 °F 81% 29.95 in 6.2 mi South 3.5 mph - N/A   Mostly Cloudy
10:00 AM 41 °F - 34 °F 68% 29.99 in - WNW 2.3 mph - -  
10:20 AM 41.0 °F - 35.6 °F 81% 29.95 in 6.2 mi Variable 1.2 mph - N/A   Mostly Cloudy
10:50 AM 42.8 °F - 35.6 °F 76% 29.95 in 6.2 mi Variable 2.3 mph - N/A   Mostly Cloudy
11:20 AM 44.6 °F - 35.6 °F 71% 29.95 in 6.2 mi Variable 2.3 mph - N/A   Mostly Cloudy
11:50 AM 44.6 °F - 37.4 °F 76% 29.98 in 6.2 mi Variable 1.2 mph - N/A   Mostly Cloudy
12:00 PM 45 °F - 36 °F 60% 30.00 in - North 3.5 mph - -  
12:20 PM 46.4 °F - 35.6 °F 66% 29.98 in 6.2 mi Variable 2.3 mph - N/A   Mostly Cloudy
12:50 PM 44.6 °F 40.7 °F 37.4 °F 76% 29.98 in 6.2 mi East 6.9 mph - N/A   Mostly Cloudy
1:00 PM 44 °F - 35 °F 60% 30.00 in - ENE 5.8 mph - -  
1:20 PM 46.4 °F - 37.4 °F 71% 29.98 in 6.2 mi Variable 2.3 mph - N/A   Mostly Cloudy
1:50 PM 46.4 °F 43.5 °F 37.4 °F 71% 29.95 in 6.2 mi East 5.8 mph - N/A   Mostly Cloudy
2:00 PM 46 °F - 38 °F 63% 29.99 in 14 mi East 5.8 mph - -   Partly Cloudy
2:20 PM 46.4 °F 45.2 °F 39.2 °F 76% 29.95 in 6.2 mi NE 3.5 mph - N/A   Mostly Cloudy
2:50 PM 48.2 °F - 41.0 °F 76% 29.95 in 6.2 mi North 4.6 mph - N/A   Mostly Cloudy
3:00 PM 47 °F - 38 °F 60% 29.98 in - NE 5.8 mph - -  
3:20 PM 48.2 °F - 39.2 °F 71% 29.95 in 6.2 mi ENE 4.6 mph - N/A   Mostly Cloudy
3:50 PM 50.0 °F - 39.2 °F 66% 29.95 in 6.2 mi NNE 5.8 mph - N/A   Mostly Cloudy
4:00 PM 48 °F - 38 °F 58% 29.98 in - North 4.6 mph - -  
4:20 PM 50.0 °F - 39.2 °F 66% 29.95 in 6.2 mi Variable 2.3 mph - N/A Rain Light Rain
4:50 PM 48.2 °F - 39.2 °F 71% 29.95 in 6.2 mi East 4.6 mph - N/A   Mostly Cloudy
5:20 PM 48.2 °F - 39.2 °F 71% 29.95 in 6.2 mi ENE 5.8 mph - N/A   Mostly Cloudy
5:50 PM 48.2 °F - 41.0 °F 76% 29.95 in 6.2 mi ENE 6.9 mph - N/A   Mostly Cloudy
6:00 PM 49 °F - 39 °F 59% 29.97 in - ENE 5.8 mph - -  
6:20 PM 50.0 °F - 39.2 °F 66% 29.95 in 6.2 mi NNE 4.6 mph - N/A   Mostly Cloudy
6:50 PM 50.0 °F - 41.0 °F 71% 29.95 in 6.2 mi Variable 2.3 mph - N/A   Mostly Cloudy
7:00 PM 50 °F - 40 °F 58% 29.97 in - North 4.6 mph - -  
7:20 PM 50.0 °F - 39.2 °F 66% 29.95 in 6.2 mi North 3.5 mph - N/A   Mostly Cloudy
7:50 PM 50.0 °F - 41.0 °F 71% 29.95 in 6.2 mi Variable 2.3 mph - N/A   Mostly Cloudy
8:00 PM 49 °F - 40 °F 61% 29.96 in 16 mi North 3.5 mph - -   Partly Cloudy
8:20 PM 48.2 °F - 41.0 °F 76% 29.95 in 6.2 mi Calm Calm - N/A   Mostly Cloudy
8:50 PM 48.2 °F - 41.0 °F 76% 29.95 in 6.2 mi Variable 1.2 mph - N/A   Mostly Cloudy
9:00 PM 49 °F - 41 °F 66% 29.97 in - North 2.3 mph - -  
9:20 PM 48.2 °F - 41.0 °F 76% 29.95 in 6.2 mi Variable 1.2 mph - N/A   Mostly Cloudy
9:50 PM 48.2 °F - 42.8 °F 82% 29.98 in 6.2 mi Variable 2.3 mph - N/A   Mostly Cloudy
10:00 PM 49 °F - 42 °F 69% 29.99 in - West 3.5 mph - -  
10:20 PM 48.2 °F - 42.8 °F 82% 29.98 in 6.2 mi SW 3.5 mph - N/A   Mostly Cloudy
10:50 PM 48.2 °F - 44.6 °F 87% 29.98 in 6.2 mi Calm Calm - N/A   Mostly Cloudy
11:20 PM 48.2 °F - 44.6 °F 87% 30.01 in 6.2 mi West 3.5 mph - N/A Rain Light Rain
11:50 PM 48.2 °F - 44.6 °F 87% 30.01 in 6.2 mi WSW 3.5 mph - N/A Rain Light Rain